This is the latest recevied weather packets stored in our database for station/object WA3NOA-2. If no packets are shown the sender has not sent any weather packets the latest 10 day(s).
| Time | Temp. | Humidity | Pressure | Rain* | Wind** | Luminosity | Snow |
|---|---|---|---|---|---|---|---|
| 1778167327 | 14.44° C | 57% | 1005 hPa | 0.25 mm | - | - | - |
| 1778167090 | 14.44° C | 55% | 1005.1 hPa | 0.25 mm | - | - | - |
| 1778167027 | 14.44° C | 54% | 1005.2 hPa | 0.25 mm | - | - | - |
| 1778166727 | 13.89° C | 58% | 1005.2 hPa | 0.25 mm | - | - | - |
| 1778166427 | 14.44° C | 58% | 1005.2 hPa | 0.25 mm | - | - | - |
| 1778166188 | 13.89° C | 58% | 1005.3 hPa | 0.51 mm | - | - | - |
| 1778166127 | 13.89° C | 58% | 1005.3 hPa | 0.51 mm | - | - | - |
| 1778165827 | 13.89° C | 58% | 1005.5 hPa | 0.51 mm | - | - | - |
| 1778165527 | 14.44° C | 62% | 1005.3 hPa | 0.51 mm | - | - | - |
| 1778165288 | 13.89° C | 63% | 1005.5 hPa | 0.25 mm | - | - | - |
| 1778165227 | 13.89° C | 59% | 1005.5 hPa | 0.25 mm | - | - | - |
| 1778164927 | 14.44° C | 64% | 1005.5 hPa | 0.25 mm | - | - | - |
| 1778164626 | 13.89° C | 64% | 1005.5 hPa | 0.25 mm | - | - | - |
| 1778164388 | 13.89° C | 64% | 1005.5 hPa | 0.25 mm | - | - | - |
| 1778164327 | 13.89° C | 65% | 1005.4 hPa | 0.25 mm | - | - | - |
| 1778164027 | 13.89° C | 65% | 1005.6 hPa | 0.25 mm | - | - | - |
| 1778163726 | 13.89° C | 64% | 1005.7 hPa | 0.25 mm | - | - | - |
| 1778163488 | 14.44° C | 69% | 1005.7 hPa | 0.25 mm | - | - | - |
| 1778163427 | 13.89° C | 69% | 1005.6 hPa | 0.25 mm | - | - | - |
| 1778163127 | 13.33° C | 69% | 1005.6 hPa | 0.25 mm | - | - | - |
| 1778162827 | 12.78° C | 72% | 1005.6 hPa | 0.25 mm | - | - | - |
| 1778162588 | 12.22° C | 75% | 1005.6 hPa | 0 mm | - | - | - |
| 1778162526 | 12.22° C | 73% | 1005.6 hPa | 0 mm | - | - | - |
| 1778162227 | 12.22° C | 73% | 1005.6 hPa | 0 mm | - | - | - |
| 1778161927 | 12.22° C | 75% | 1005.8 hPa | 0 mm | - | - | - |
* Rain latest hour (hover to see other rain measurements)
** Current wind speed in m/s (hover to see current wind gust speed)